¡¡ºÇ¿·¤Î¾ðÊó¤Ï¥Æ¥ì¥Û¥ó¥µ¡¼¥Ó¥¹¡Ê£°£³¡Ý£³£¹£´£²¡Ý£±£°£°£°¡Ë¤ò¤ªÊ¹¤­¤¯¤À¤µ¤¤¡£¡¡¡¡
¡¡°Ê¸å¤Î±¿ÍѤˤĤ­¤Þ¤·¤Æ¤Ï£±£±·î¾å½Ü¤Ë¤ªÃΤ餻¤¤¤¿¤·¤Þ¤¹¡£
 
¡¡¤Õ¤¸£²¹æ¡Ê£Ê£Á£Ó¡Ý£±£â¡Ë¤Î±¿ÍÑ 

¡¡£Ã£×¥Æ¥ì¥á¥È¥ê¤Îµ¡Ç½¤Ë¾ã³²¤¬È¯À¸¤·¤Æ¤¤¤Þ¤¹¡£¾ÜºÙ¤Ï¡Ö¤Õ¤¸£²¹æ¡×¤Î¸½¶·¤ò¤´Í÷¤¯¤À¤µ¤¤¡£
¡¡±¿ÍѤϥ¢¥Ê¥í¥°·Ï¤ÎϢ³±¿ÍѤȤ·¤Þ¤¹¡£
 
¡¡
-----------------------    £Æ£Ï¡Ý£²£°¡ÊJAS-£±£â¡ËÆ»Í×ÁÇ   -------------------------
 ¡¡£µ¡Ë
 ¡¡¢£ µ°Æ»Í×ÁÇ£± ¡§½Ðŵ¤Ï£Æ£Ï-£²£¹¡Ö¤Õ¤¸£³¹æ¡×¤ËƱ¤¸¡¥
  
 ¡¡FO-20
¡¡1 20480U 90013C   00263.87248329  .00000011  00000-0  98458-4 0 02781
¡¡2 20480 099.0673 016.6056 0540216 200.8929 156.9312 12.83278636497421
 
 ¡¡¢£ µ°Æ»Í×ÁÇ£² ¡§½Ðŵ¤Ï£Æ£Ï¡Ý£²£¹¡Ö¤Õ¤¸£³¹æ¡×¤ËƱ¤¸¡¥
               
 ¡¡Satellite: FO-20
¡¡Catalog number: 20480
¡¡Epoch time:      00263.87248329
¡¡Element set:    0278
¡¡Inclination:      099.0673 deg
¡¡RA of node:       016.6056 deg
¡¡Eccentricity:    0.0540216
¡¡Arg of perigee:   200.8929 deg
¡¡Mean anomaly:     156.9312 deg
¡¡Mean motion:   12.83278636 rev/day
¡¡Decay rate:        1.1e-07 rev/day^2
¡¡Epoch rev:           49742
¡¡Checksum:              305

¡¡--------------------------------------------------------------------------------
¡¡
¡¡        ¢£ ¤Õ¤¸£²¹æ¡¿£Æ£Ï¡Ý£²£°/JAS-1£â ¢£  ¡¡   
            
¡¡¡¡¡¡¡¡¡¡¡¡¡¡¡¡¡¡¡¡¡Ö¤Õ¤¸£²¹æ¡×¡¡¸½¶·                                                                                  
             
   JAS-1b¡Ê¤Õ¤¸£²¹æ¡Ë¤Î£Ã£×¥Æ¥ì¥á¥È¥ê¿®¹æ¤Ë¡¤£±£¹£¹£·Ç¯£±£°·î£±£²Æü£±£²»þ¡Ê£Ê£Ó£Ô¡Ë¤Î
¡¡ÆüËܾå¶õÄ̲á»þ¡¤£³·å¤Î¿ô»ú¤¬·«¤êÊÖ¤µ¤ì¤ë¤Ï¤º¤¬£³¸Ä¤ÎĹ²»¤Î·«¤êÊÖ¤·¤È¤Ê¤Ã¤Æ¤¤¤ë¤È¤¤¤¦
¡¡°Û¾ï¤¬È¯¸«¤µ¤ì¤Þ¤·¤¿¡£¤³¤ÎÉÔ¶ñ¹ç¤Ï¼¡¤ÎÄ̲á»þ¤«¤é¤Ï²óÉü¤·¤Æ¤¤¤Þ¤·¤¿¤¬£±£³Æü£±£µ»þ£²£°Ê¬¤Î
¡¡Ä̲á»þ¤ËºÆ¤Ó´Ñ¬¤µ¤ì¤Þ¤·¤¿¡£¸½ºß¤Ï£Á£°¤ÎÁ÷¿®¤¬Â³¤¤¤Æ¤¤¤Þ¤¹¡£±ÒÀ±¤Î¥¢¥Ê¥í¥°·ÏÃæ·Ñ¥â¡¼¥É
¡¡Æ°ºî¤Ï°Û¾ï¤¬Ìµ¤¯¡¤Àµ¾ï»þ¤Î¥Æ¥ì¥á¥È¥êÆâÍƤ«¤é¤Ï±ÒÀ±¤ÎÆ°ºî¤Ë°Û¾ï¤Ïǧ¤á¤é¤ì¤Þ¤»¤ó¡£½¾¤Ã¤Æ¡¤
¡¡Ä¾¤Á¤Ë±ÒÀ±¤Î¥ß¥Ã¥·¥ç¥ó¤Ë±Æ¶Á¤¹¤ë¤³¤È¤Ï̵¤¤¤ÈͽÁÛ¤µ¤ì¤Þ¤¹¤Î¤Ç¡¤ÅöÌ̤ϥ¢¥Ê¥í¥°·ÏÃæ·Ñ
¡¡¥â¡¼¥É¤ò·Ñ³¤·¤Þ¤¹¡£±ÒÀ±¤Ï´û¤ËÂǤÁ¾å¤²¤Æ¤«¤é£·Ç¯£¸¥ö·î¤ò·Ð¤Æ¤ª¤ê¤Þ¤¹¤Î¤Ç¡¤º£¸å¤Ï´Æ»ë¤ò
¡¡¶¯²½¤¹¤ëͽÄê¤Ç¤¹¡£¥¢¥Þ¥Á¥å¥¢³Æ°Ì¤Î¥ì¥Ý¡¼¥È¤ò¤ªÂÔ¤Á¤·¤Þ¤¹¡£
¡¡-------------------------------------------------------------------------------- 
¡¡¡¡1997ǯ10·î14Æü¡¡00»þ35ʬ ³Îǧ¤Î¥Æ¥ì¥á¥È¥ê²» 151 KB ¡Ê£Á£°¡Ë 
¡¡¡¡1997ǯ10·î14Æü¡¡11»þ10ʬ ³Îǧ¤Î¥Æ¥ì¥á¥È¥ê²» 216 KB ¡Ê°Û¾ï¥­¡¼¥¤¥ó¥°¡Ë 

  °Ê¾å¡¡£Ê£Á£Ò£Ì¤Î¥Û¡Ý¥à¥Ú¡¼¥¸¤Î http://www.jarl.or.jp/Japanese/3_Fuji/new/fuji.htm

===================== FO-20¡¡¤Õ¤¸£²¹æ¡¡¤Î¥Æ¥ì¥á¥È¥ê´Ñ¬·ë²Ì¡¡====================

   £¶·î£³Æü¡ÊÅڡˤΣ±£´¡§£±£µ¡ÊJST)¤Î¥Ñ¥¹¤Î´Ñ¬·ë²Ì¤Ç¤Ï°ÊÁ°´Ñ¬¤·¤¿·ë²Ì¤è¤ê¤âÊÑÆ°¤Î¤Ê¤¤
¡¡Ã±°ì¼þÇÈ¿ô¤Ç¥É¥Ã¥×¥é¡¼¸ú²Ì¤Ç¼þÇÈ¿ô¤¬¤º¤ì¤Æ¤¤¤¯¤Î¤ß¤Î¾õÂÖ¤ËÌá¤Ã¤Æ¤ª¤ê¤Þ¤·¤¿¡£
                                         
   =============   JAS-2 ¡Ê¤Õ¤¸£³¹æ¡Ë¤È¸½ºß¤Þ¤Ç¤Î¾ðÊó   ===========
  
  £Á¡¥ÅÅÏäˤè¤ë¤Õ¤¸£³¹æ¤Î±¿ÍѾðÊó
      ¼ÒÃÄË¡¿ÍÆüËÜ¥¢¥Þ¥Á¥å¥¢Ï¢ÌÁ¤Ë¤è¤ë¥µ¡¼¥Ó¥¹
           £Ô£Å£Ì ¡¥   £°£³¡Ý £³£¹£´£² ¡Ý £±£°£°£°
  £Â¡¥¥¢¥Þ¥Á¥å¥¢ÌµÀþ£Æ£Á£Ø¥µ¡¼¥Ó¥¹
      £Ê£Á£Ò£Ì¤Ë¤è¤ë¤Õ¤¸£³¹æ¤Îµ°Æ»¾ðÊó¡Ê¥ª¡¼¥Ó¥Ã¥È¥«¥ì¥ó¥À¡¼¡Ë
         £Æ£Á£Ø £Î£ï¡¥  £°£³¡Ý £³£²£³£³ ¡Ý£°£°£µ£µ
  £Ã¡¥£×£×£×¥Ö¥é¥¦¥¶¤Ç¾ðÊó¤ò´Êñ¤Ë¸«¤ì¤ë¿Í¤Î¤¿¤á¤Ë£Ê£Á£Ó¡Ý£²
     ¤Õ¤¸£³¹æ¤Î±ÒÀ±¤È¤·¤Æ¤Î±¿ÍѤµ¤ì¤ë¤Þ¤Ç¤Î̾Á°¡Ë¤Î³µÍס¢ÂǤÁ¾å¤²
     ¤Þ¤Ç¤Î¾õ¶·¡¢±¿ÍÑÃæ¤Ë¤ª¤±¤ë¾õ¶·¤òÀâÌÀ¤·¤¿¥Û¡¼¥à¥Ú¡¼¥¸¤ò¾Ò²ð¤·
     ¤Æ¤ª¤­¤Þ¤¹¡¥
    ­¡ ¼ÒÃÄË¡¿ÍÆüËÜ¥¢¥Þ¥Á¥å¥¢ÌµÀþÏ¢ÌÁ¡Ê£Ê£Á£Ò£Ì¡Ë¤Î¥Û¡¼¥à¥Ú¡¼¥¸

          http://www.jarl.or.jp/Japanese/3_Fuji/jasmenu.htm
 
    ­¢ ±§Ã賫ȯ»ö¶ÈÃġʣΣÁ£Ó£Ä£Á¡Ë¥Û¡¼¥à¥Ú¡¼¥¸ 
          http://www.nasda.go.jp/
         ÂǾ夲±ÒÀ±¡¡¡§Ãϵå´Ñ¬¥×¥é¥Ã¥È¥Õ¥©¡¼¥àµ»½Ñ±ÒÀ±¡ÊADEOS¡Ë 
                       ¥¢¥Þ¥Á¥å¥¢±ÒÀ±£³¹æ(JAS-2)
          http://yyy.tksc.nasda.go.jp/Home/Press/Press-j/jas-2_j.html        

  £Ä¡¥£Ê£Á£Í£Ó£Á£Ô¤Ë¤è¤ëµ°Æ»¾ðÊó¤Î³èÍÑ
        JAMSAT¤Î¥Û¡¼¥à¥Ú¡¼¥¸¤Þ¤¿¤Ïjamsat¡Ýkeps¤Îµ°Æ»Í×ÁǤè¤ê
      ±ÒÀ±¤Îµ°Æ»¾ðÊó¤òÆÀ¤ë¡¥
     £Ê£Á£Í£Ó£Á£Ô¥Û¡¼¥à¥Ú¡¼¥¸
               £Õ£Ò£Ì    http://www.jamsat.or.jp
       ¾åµ­¥Û¡¼¥à¥Ú¡¼¥¸¤Ç¤Ï³ÆÃϤǹԤï¤ì¤ë¥¢¥Þ¥Á¥å¥¢ÄÌ¿®±ÒÀ±¤Ë´Ø¤¹¤ë
      ¥ß¥å¡¼¥Æ¥£¥ó¥°¤Î¤ªÃΤ餻¤äÀ¤³¦¤Î¥¢¥Þ¥Á¥å¥¢±ÒÀ±¤Ë´Ø¤¹¤ë¾ðÊó¤¬
      ËþºÜ¤µ¤ì¤Æ¤¤¤Þ¤¹¡¥
¡¡========================================================================  
¡¡    £Ê£Á£Í£Ó£Á£Ô¤Î¥á¥ó¥Ð¡¼¤Î¤´¶¨ÎϤˤè¤ê£Ê£È£¶£Í£Í£Å¡Ê¹â»³ ½¨Â¤¡Ë¤¬
    ¼¹É®¡¦ÊÔ½¸¤òôÅö¤·¤Æ¤ª¤ê¤Þ¤¹¡¥¤´»ØŦ¤Î°Õ¸«¡¢µ¿Ìä¤ä¤³¤Î¤è¤¦¤Ë¤·¤¿¤é
    ¤È¤¤¤¦¥¢¥¤¥Ç¥¢¤¬¤¢¤ê¤Þ¤·¤¿¤é¾®¤µ¤Ê¤³¤È¤Ç¤â¤«¤Þ¤¤¤Þ¤»¤ó¤Î¤Çµ¤·Ú¤Ë²¼
    µ­¥¢¥É¥ì¥¹¤Þ¤Ç¤´Ï¢Íí¤¯¤À¤µ¤¤¡¥£ê£á£í£ó£á£ô¡Ý£î£å£÷£ó¤«¤é£ê£á£ó£²
    £é£î£æ£ï¤Ø¤ÎžºÜ¤ò£Ê£È£´£Ð£È£×¶Éºä°æ¤µ¤ó¤ËôÅö¤·¤Æ夤¤Æ¤ª¤ê¤Þ¤¹¡¥  
                  E-mail : jh6mme@jamsat.or.jp : jh4phw@jamsat.or.jp
 ===============================   £Å£Î£Ä  ===============================